Kitchener, Ontario

11:48 PM EST on February 21, 2017 (GMT -0500)
Kitchener-Waterloo Regional

Weather History for CYKF - April, 2014

Change the Weather History Date:

Monday, April 7, 2014

  Actual Average Record
Temperature  
Mean Temperature 38 °F -  
Max Temperature 50 °F 53 °F 61 °F (2013)
Min Temperature 27 °F 35 °F 17 °F (2007)
Degree Days  
Heating Degree Days 26    
Moisture  
Dew Point 30 °F    
Average Humidity 74    
Maximum Humidity 100    
Minimum Humidity 39    
Precipitation  
Precipitation 0.20 in 0.10 in - ()
Sea Level Pressure  
Sea Level Pressure 29.84 in    
Wind  
Wind Speed 6 mph ()    
Max Wind Speed 21 mph    
Max Gust Speed 21 mph    
Visibility 8.4 miles    
Events Rain    
Averages and records for this station are not official NWS values.
T = Trace of Precipitation, MM = Missing Value Source: Averaged Metar Reports

Daily Weather History Graph

Daily Weather History Graph

Search for Another Location

Airport or City:

Trip Planner

Search our weather history database for the weather conditions in past years. The results will help you decide how hot, cold, wet, or windy it might be!

Date:

Astronomy

Apr. 07, 2014 Rise Set
Actual Time 6:52 AM EDT 7:55 PM EDT
Civil Twilight 6:23 AM EDT 8:24 PM EDT
Nautical Twilight 5:48 AM EDT 8:59 PM EDT
Astronomical Twilight 5:12 AM EDT 9:36 PM EDT
Moon 12:42 PM EDT (4/7) 2:36 AM EDT (4/7)
Length of Visible Light 14h 01m
Length of Day
13h 02m
First Quarter, 53% of the Moon is Illuminated
Apr 7
First Quarter
Apr 15
Full
Apr 22
Last Quarter
Apr 29
New
May 6
First Quarter

Hourly Weather History & Observations

Time (EDT) Temp. Windchill Dew Point Humidity Pressure Visibility Wind Dir Wind Speed Gust Speed Precip Events Conditions
12:00 AM 33.8 °F 29.6 °F 28.4 °F 81% 30.09 in 9.0 mi ENE 4.6 mph - N/A   Mostly Cloudy
1:00 AM 32.0 °F 28.7 °F 26.6 °F 80% 30.08 in 9.0 mi NE 3.5 mph - N/A   Clear
2:00 AM 31 °F - 28 °F 81% 30.09 in 10 mi ENE 2.3 mph - -  
2:00 AM 30.2 °F - 26.6 °F 86% 30.09 in 9.0 mi ENE 2.3 mph - N/A   Clear
3:00 AM 28.4 °F - 26.6 °F 93% 30.06 in 9.0 mi NE 2.3 mph - N/A   Clear
4:00 AM 28.4 °F 24.6 °F 26.6 °F 93% 30.04 in 9.0 mi ENE 3.5 mph - N/A   Clear
5:00 AM 32.0 °F 27.5 °F 24.8 °F 75% 30.00 in 9.0 mi NE 4.6 mph - N/A   Clear
6:00 AM 30.2 °F - 24.8 °F 80% 29.99 in 9.0 mi NE 2.3 mph - N/A   Clear
7:00 AM 30.2 °F 25.4 °F 24.8 °F 80% 29.99 in 9.0 mi NE 4.6 mph - N/A   Clear
8:00 AM 32 °F - 27 °F 76% 29.99 in 10 mi East 3.5 mph - -  
8:00 AM 32.0 °F 27.5 °F 26.6 °F 80% 29.99 in 9.0 mi East 4.6 mph - N/A   Clear
9:00 AM 37.4 °F 32.8 °F 28.4 °F 70% 29.96 in 9.0 mi ENE 5.8 mph - N/A   Clear
10:00 AM 41.0 °F 35.8 °F 30.2 °F 65% 29.94 in 9.0 mi ENE 8.1 mph - N/A   Partly Cloudy
11:00 AM 42.8 °F 38.0 °F 28.4 °F 57% 29.93 in 9.0 mi East 8.1 mph - N/A   Clear
12:00 PM 44.6 °F 41.4 °F 26.6 °F 49% 29.92 in 9.0 mi East 5.8 mph - N/A   Clear
1:00 PM 46.4 °F 40.7 °F 28.4 °F 50% 29.87 in 9.0 mi East 12.7 mph - N/A   Clear
2:00 PM 46 °F - 29 °F 39% 29.84 in 10 mi East 13.8 mph - -  
2:00 PM 46.4 °F 40.4 °F 28.4 °F 50% 29.84 in 9.0 mi East 13.8 mph - N/A   Scattered Clouds
3:00 PM 50.0 °F - 28.4 °F 43% 29.80 in 9.0 mi ESE 17.3 mph - N/A   Partly Cloudy
4:00 PM 50.0 °F - 28.4 °F 43% 29.76 in 9.0 mi East 13.8 mph 20.7 mph N/A   Partly Cloudy
5:00 PM 44.6 °F 37.8 °F 28.4 °F 53% 29.70 in 9.0 mi East 15.0 mph 20.7 mph N/A   Mostly Cloudy
6:00 PM 42.8 °F 35.4 °F 30.2 °F 61% 29.68 in 9.0 mi East 15.0 mph - N/A   Overcast
6:22 PM 42.8 °F 37.0 °F 32.0 °F 66% 29.68 in 9.0 mi East 10.4 mph - N/A Rain Light Rain
6:27 PM 42.8 °F 36.6 °F 32.0 °F 66% 29.68 in 9.0 mi East 11.5 mph - N/A Rain Light Rain
7:00 PM 41.0 °F 35.2 °F 35.6 °F 81% 29.65 in 8.0 mi ENE 9.2 mph - N/A Rain Light Rain
7:40 PM 39.2 °F 33.6 °F 35.6 °F 87% 29.65 in 5.0 mi ENE 8.1 mph - N/A Rain Light Rain
8:00 PM 39 °F - 37 °F 89% 29.63 in 5 mi ENE 8.1 mph - - Rain Rain
8:00 PM 39.2 °F 33.6 °F 37.4 °F 93% 29.63 in 5.0 mi NE 8.1 mph - N/A Rain Rain
9:00 PM 39.2 °F 33.0 °F 39.2 °F 100% 29.60 in 4.0 mi NE 9.2 mph - N/A Rain Light Rain
9:32 PM 39.2 °F 31.2 °F 39.2 °F 100% 29.57 in 6.0 mi NE 13.8 mph 19.6 mph N/A Rain Light Rain
10:00 PM 39.2 °F 30.5 °F 37.4 °F 93% 29.56 in 9.0 mi ENE 16.1 mph - N/A Rain Light Rain
11:00 PM 37.4 °F 26.9 °F 35.6 °F 93% 29.53 in 9.0 mi ENE 20.7 mph - N/A Rain Light Rain